Regional Weather Roundup
Issued by NWS

Home | Current Version | Previous Version | Graphics & Text | Print | Product List | Glossary On
Versions: 1 2 3 4 5 6 7 8 9 10 11 12 13 14 15 16 17 18 19 20 21 22 23 24 25 26 27 28 29 30 31 32 33 34 35 36 37 38 39 40 41 42 43 44 45 46 47 48 49 50
000
ASUS43 KMPX 280301
RWRMN
WEATHER ROUNDUP FOR MINNESOTA
NATIONAL WEATHER SERVICE TWIN CITIES/CHANHASSEN MN
1000 PM CDT MON MAR 27 2017


NOTE: "FAIR" INDICATES FEW OR NO CLOUDS BELOW 12,000 FEET WITH NO
SIGNIFICANT WEATHER AND/OR OBSTRUCTIONS TO VISIBILITY. N/A MEANS
CURRENT SKY AND/OR WEATHER CONDITIONS ARE NOT AVAILABLE.

MNZ060>063-068>070-280400-
   Twin Cities Metro

CITY           SKY/WX    TMP DP  RH WIND       PRES   REMARKS
TWIN CITIES    CLEAR     47  36  65 S5        30.00R
ST PAUL        CLEAR     41  37  86 CALM      30.01R
CRYSTAL        CLEAR     44  32  62 CALM      30.00R
BLAINE         CLEAR     43  36  75 CALM      30.01R
LAKEVILLE      CLEAR     37  37 100 CALM      30.01R
EDEN PRAIRIE   CLEAR     48  37  65 S3        29.99R
SOUTH ST PAUL  CLEAR     42  35  77 CALM      30.00S
LAKE ELMO      FAIR      37  36  93 CALM      30.01R
$$
MNZ001>005-007-008-013>017-022>024-027-028-280400-
   Northwest Minnesota

CITY           SKY/WX    TMP DP  RH WIND       PRES   REMARKS
BEMIDJI        CLEAR     38  29  70 E3        30.00R
HALLOCK        CLOUDY    36  36 100 NW5       30.07R
ROSEAU         PTCLDY    39  34  81 N6        30.05R
WARROAD        CLOUDY    37  32  81 N3        30.05S
THIEF RVR FALL CLOUDY   N/A N/A N/A N7        30.05R
CROOKSTON      SNOW      37  37 100 N10       30.06R VSB 1/4
FOSSTON        CLEAR     34  30  86 CALM      30.04R
DETROIT LAKES  CLEAR     43  41  93 N5        30.02R
MOORHEAD       CLEAR     41  39  93 N8        30.03R FOG
PARK RAPIDS    CLEAR     40  25  55 CALM      30.00R
MAHNOMEN       FAIR      37  37  97 NW3       30.02R FOG
$$
MNZ006-009>011-018-025>026-280400-
   North Central Minnesota

CITY           SKY/WX    TMP DP  RH WIND       PRES   REMARKS
BAUDETTE       CLOUDY    41  30  65 N8        30.03R
FLAG ISLAND    PTCLDY    41  28  60 N7        30.04S
INTL FALLS     CLOUDY    39  27  62 N5        30.01R
WASKISH        PTCLDY    36  30  80 CALM      30.02R
BIG FORK       CLEAR     34  21  60 CALM      30.01R
LONGVILLE      CLEAR     32  28  86 CALM      30.00S FOG
GRAND RAPIDS   CLEAR     36  28  73 CALM      30.02S
CRANE LAKE     CLEAR     27  25  93 CALM      30.03S
ORR            CLEAR     37  25  60 CALM      29.99R
COOK           CLEAR     32  27  80 CALM      30.02R
WALKER         FAIR      40  27  60 CALM      29.99S
$$
MNZ012-019>021-037-280400-
   Northeast Minnesota

CITY           SKY/WX    TMP DP  RH WIND       PRES   REMARKS
DULUTH         CLEAR     38  31  76 SE3       30.01R
ELY            CLEAR     30  21  69 CALM      30.01R
HIBBING        CLEAR     29  25  85 NW3       30.00R
EVELETH        CLEAR     32  26  79 CALM      30.02R
DULUTH HARBOR  CLEAR     36  34  93 CALM      30.04S
TWO HARBORS    CLEAR     34  28  80 CALM      30.02R
SILVER BAY     CLEAR     30  28  93 CALM      30.02R
GRAND MARAIS     N/A     31  29  92 CALM      30.03R
G MARAIS ARPRT CLEAR     30  27  86 W3        30.01S
$$
MNZ029>031-032-039>041-046>048-054>057-064-280400-
   West Central Minnesota

CITY           SKY/WX    TMP DP  RH WIND       PRES   REMARKS
FERGUS FALLS   CLEAR     45  37  76 CALM      30.03R
WHEATON        PTCLDY    41  34  75 CALM      30.02R
MORRIS         PTCLDY    43  34  70 S3        30.00R
ALEXANDRIA     CLEAR     43  35  73 CALM      30.01R
ELBOW LAKE     FAIR      43  37  80 N3        30.01R
WADENA         CLEAR     39  32  75 CALM      30.00R
GLENWOOD       CLOUDY    45  36  70 SE5       30.01S
APPLETON       PTCLDY    43  36  75 CALM      30.00R
BENSON         MOCLDY    48  32  53 SE5       30.02R
MADISON        PTCLDY    46  39  76 CALM      30.00R
WILLMAR        FAIR      45  36  70 NE5       30.02R
$$
MNZ033>034-036-042>043-049>051-058-059-280400-
   Central Minnesota

CITY           SKY/WX    TMP DP  RH WIND       PRES   REMARKS
ST CLOUD       CLEAR     39  34  82 N5        30.01R
SAUK CENTRE    FAIR      38  32  79 CALM      30.01R
PAYNESVILLE      N/A     38  34  84 CALM      30.01S
AITKIN         CLEAR     36  27  69 CALM      30.00R
PINE RIVER     CLEAR     36  28  75 CALM      30.04R
BRAINERD       CLEAR     36  29  75 CALM      30.01R
STAPLES        PTCLDY    41  34  75 CALM      30.01R
LONG PRAIRIE   FAIR      41  32  70 CALM      30.02R
LITTLE FALLS   CLEAR     34  32  93 CALM      30.02R
LITCHFIELD     CLOUDY    46  37  71 CALM      30.01R
BUFFALO        CLEAR     41  34  74 CALM      30.02R
MAPLE LAKE     CLEAR     39  36  88 CALM      30.02R
HUTCHINSON     CLOUDY    44  36  73 CALM      30.02R
$$
MNZ037-044-045-052-053-280400-
   East Central Minnesota

CITY           SKY/WX    TMP DP  RH WIND       PRES   REMARKS
PRINCETON      CLEAR     37  34  87 CALM      30.02R
MORA           CLEAR     34  30  86 CALM      30.03R
CAMBRIDGE      CLEAR     39  30  70 CALM      30.00R
RUSH CITY      CLEAR     42  32  69 NE3       30.01R
MOOSE LAKE     CLEAR     37  32  81 N3        30.00R
CLOQUET        CLEAR     36  28  75 CALM      30.01S
MCGREGOR       CLEAR     34  32  93 E3        30.01R
$$
MNZ071>073-080-081-089-090-097-098-280400-
   Southwest Minnesota

CITY           SKY/WX    TMP DP  RH WIND       PRES   REMARKS
MONTEVIDEO     CLOUDY    43  34  70 E6        30.02R
GRANITE FALLS  PTCLDY    46  35  65 NE5       30.01S
CANBY          PTCLDY    45  39  79 CALM      30.01R
MARSHALL       PTCLDY    44  37  76 SW3       30.00R
REDWOOD FALLS  CLEAR     47  33  58 NE3       29.99R
OLIVIA         CLOUDY    43  32  65 CALM      30.00R
PIPESTONE      CLOUDY    45  36  70 SE3       30.00R
WINDOM         CLEAR     39  36  87 CALM      30.00R
WORTHINGTON    CLEAR     43  37  79 S5        30.01R
JACKSON        CLEAR     41  36  81 S5        30.01R
TRACY          CLEAR     44  38  79 S6        30.00R
SLAYTON        PTCLDY    41  37  84 S3        30.01R
$$
MNZ065>067-074>077-082>085-091>093-280400-
   South Central Minnesota

CITY           SKY/WX    TMP DP  RH WIND       PRES   REMARKS
MANKATO        CLEAR     42  38  85 SW3       30.01R
NEW ULM        CLEAR     45  34  65 CALM      30.00R
ST JAMES       CLEAR     45  39  81 CALM      30.02R
FAIRMONT       CLEAR     41  39  93 CALM      30.01R
GLENCOE        PTCLDY    44  37  77 CALM      30.00R
FARIBAULT      PTCLDY    37  36  93 CALM      30.01R
OWATONNA       CLEAR     39  36  87 CALM      30.01R
WASECA         CLEAR     41  36  81 E3        30.02R
ALBERT LEA     CLEAR     39  37  93 CALM      30.00R
$$
MNZ078>079-086>088-094>096-280400-
   Southeast Minnesota

CITY           SKY/WX    TMP DP  RH WIND       PRES   REMARKS
ROCHESTER      CLEAR     41  39  93 CALM      30.00R
RED WING       CLEAR     37  34  87 CALM      30.00R
STANTON        CLEAR     38  34  88 CALM      30.00R
DODGE CENTER   CLEAR     39  37  93 CALM      30.01R
WINONA         CLEAR     37  37 100 CALM      30.02R
AUSTIN         CLOUDY    45  39  81 CALM      29.99S
PRESTON        CLOUDY    42  37  85 CALM      30.01R
$$
ABBREVIATIONS USED IN REMARKS
   TC - TEMPERATURES IN CELSIUS
  WCI - WIND CHILL INDEX
   HX - HEAT INDEX
  VSB - VISIBILITY
$$



USA.gov is the U.S. government's official web portal to all federal, state and local government web resources and services.